Grand Canyon, AZ

8:56 AM MST on August 17, 2017 (GMT -0700)
Grand Canyon National Park

Weather History for KGCN - December, 2011

Change the Weather History Date:

Thursday, December 1, 2011

  Actual Average Record
Temperature  
Mean Temperature 29 °F -  
Max Temperature 37 °F 44 °F 61 °F (2008)
Min Temperature 21 °F 15 °F 0 °F (2001)
Degree Days  
Heating Degree Days 36    
Moisture  
Dew Point 26 °F    
Average Humidity 84    
Maximum Humidity 93    
Minimum Humidity 46    
Precipitation  
Precipitation 0.02 in - - ()
Sea Level Pressure  
Sea Level Pressure 29.79 in    
Wind  
Wind Speed 11 mph (ENE)    
Max Wind Speed 24 mph    
Max Gust Speed 38 mph    
Visibility 4 miles    
Events Fog , Snow    
Averages and records for this station are not official NWS values.
T = Trace of Precipitation, MM = Missing Value Source: NWS Daily Summary

Daily Weather History Graph

Daily Weather History Graph

Search for Another Location

Airport or City:

Trip Planner

Search our weather history database for the weather conditions in past years. The results will help you decide how hot, cold, wet, or windy it might be!

Date:

Astronomy

Dec. 01, 2011 Rise Set
Actual Time 7:20 AM MST 5:14 PM MST
Civil Twilight 6:52 AM MST 5:42 PM MST
Nautical Twilight 6:20 AM MST 6:14 PM MST
Astronomical Twilight 5:49 AM MST 6:45 PM MST
Moon 12:15 PM MST (12/1) No Moon Set
Length of Visible Light 10h 50m
Length of Day
9h 54m
Waxing Crescent, 44% of the Moon is Illuminated
Dec 1
Waxing Crescent
Dec 2
First Quarter
Dec 10
Full
Dec 17
Last Quarter
Dec 24
New

Hourly Weather History & Observations

Time (MST) Temp. Windchill Dew Point Humidity Pressure Visibility Wind Dir Wind Speed Gust Speed Precip Events Conditions
12:54 AM 24.1 °F 18.2 °F 14.0 °F 65% 29.62 in 10.0 mi ENE 4.6 mph - N/A   Mostly Cloudy
1:54 AM 21.9 °F - 14.0 °F 72% 29.60 in 10.0 mi Calm Calm - N/A   Clear
2:54 AM 21.0 °F 14.6 °F 14.0 °F 74% 29.62 in 10.0 mi ENE 4.6 mph - N/A   Scattered Clouds
3:54 AM 25.0 °F - 17.1 °F 72% 29.59 in 10.0 mi Calm Calm - N/A   Overcast
4:54 AM 33.1 °F 25.5 °F 18.0 °F 54% 29.56 in 10.0 mi NE 9.2 mph - N/A   Overcast
5:54 AM 37.0 °F 29.8 °F 18.0 °F 46% 29.56 in 10.0 mi ENE 10.4 mph 20.7 mph N/A   Overcast
6:54 AM 35.1 °F 24.5 °F 19.0 °F 52% 29.57 in 10.0 mi ENE 18.4 mph 29.9 mph N/A   Mostly Cloudy
7:54 AM 35.6 °F 24.0 °F 19.4 °F 52% 29.69 in 10.0 mi ENE 23.0 mph 35.7 mph N/A   Overcast
8:54 AM 36.0 °F 25.3 °F 21.0 °F 55% 29.67 in 10.0 mi ENE 19.6 mph 29.9 mph N/A   Mostly Cloudy
9:54 AM 37.0 °F 25.6 °F 21.0 °F 52% 29.69 in 10.0 mi ENE 24.2 mph 38.0 mph N/A   Overcast
10:54 AM 37.9 °F 27.6 °F 21.9 °F 53% 29.70 in 10.0 mi ENE 20.7 mph 34.5 mph N/A   Mostly Cloudy
11:54 AM 37.9 °F 28.2 °F 21.9 °F 53% 29.72 in 10.0 mi ENE 18.4 mph 31.1 mph N/A   Overcast
12:36 PM 35.6 °F 27.5 °F 26.6 °F 70% 29.75 in 2.5 mi ENE 11.5 mph 28.8 mph 0.00 in Snow Light Snow
12:45 PM 33.8 °F 23.9 °F 28.4 °F 81% 29.75 in 1.2 mi ENE 15.0 mph 24.2 mph 0.00 in Snow Light Snow
12:54 PM 33.8 °F 24.3 °F 28.4 °F 81% 29.75 in 1.0 mi ENE 13.8 mph 23.0 mph N/A Snow Light Snow
1:07 PM 33.8 °F 23.5 °F 28.4 °F 81% 29.75 in 0.8 mi ENE 16.1 mph 23.0 mph 0.00 in Snow Light Snow
1:21 PM 33.8 °F 23.9 °F 30.2 °F 87% 29.75 in 1.5 mi ENE 15.0 mph 23.0 mph 0.00 in Snow Light Snow
1:25 PM 33.8 °F 23.9 °F 30.2 °F 87% 29.75 in 3.0 mi ENE 15.0 mph 23.0 mph 0.00 in Snow Light Snow
1:40 PM 33.8 °F 25.3 °F 28.4 °F 81% 29.75 in 2.5 mi ENE 11.5 mph 20.7 mph 0.00 in Snow Light Snow
1:48 PM 33.8 °F 24.8 °F 30.2 °F 87% 29.75 in 1.8 mi ENE 12.7 mph - 0.00 in Snow Light Snow
1:54 PM 34.0 °F 26.0 °F 30.0 °F 85% 29.76 in 1.5 mi East 10.4 mph - 0.00 in Snow Light Snow
2:04 PM 33.8 °F 24.8 °F 30.2 °F 87% 29.75 in 2.5 mi NE 12.7 mph - 0.00 in Snow Light Snow
2:11 PM 33.8 °F 25.8 °F 30.2 °F 87% 29.76 in 5.0 mi East 10.4 mph - 0.00 in Snow Light Snow
2:18 PM 33.8 °F 25.3 °F 30.2 °F 87% 29.78 in 1.5 mi South 11.5 mph 19.6 mph 0.00 in Snow Light Snow
2:20 PM 32.0 °F 23.6 °F 28.4 °F 87% 29.78 in 0.5 mi SSE 10.4 mph 19.6 mph 0.00 in Fog , Snow Light Snow
2:28 PM 30.2 °F 19.8 °F 28.4 °F 93% 29.78 in 0.2 mi SSE 13.8 mph 20.7 mph 0.04 in Fog , Snow Heavy Snow
2:34 PM 30.2 °F 21.3 °F 28.4 °F 93% 29.79 in 0.2 mi SSE 10.4 mph 20.7 mph 0.07 in Fog , Snow Heavy Snow
2:47 PM 30.2 °F 23.4 °F 28.4 °F 93% 29.79 in 0.2 mi ESE 6.9 mph - 0.12 in Fog , Snow Heavy Snow
2:54 PM 30.2 °F 23.4 °F 28.4 °F 93% 29.80 in 0.2 mi East 6.9 mph - N/A Fog , Snow Heavy Snow
3:03 PM 30.2 °F 23.4 °F 28.4 °F 93% 29.79 in 0.5 mi ENE 6.9 mph - 0.00 in Fog , Snow Snow
3:08 PM 30.2 °F 21.3 °F 28.4 °F 93% 29.79 in 0.8 mi NE 10.4 mph - 0.00 in Snow Light Snow
3:12 PM 30.2 °F 21.9 °F 28.4 °F 93% 29.80 in 1.5 mi NE 9.2 mph - 0.00 in Snow Light Snow
3:15 PM 30.2 °F 21.3 °F 28.4 °F 93% 29.80 in 3.0 mi NE 10.4 mph - 0.00 in Snow Light Snow
3:30 PM 30.2 °F 22.6 °F 28.4 °F 93% 29.81 in 10.0 mi ENE 8.1 mph - 0.00 in   Overcast
3:54 PM 30.2 °F 25.4 °F 26.6 °F 86% 29.82 in 10.0 mi ESE 4.6 mph - N/A   Overcast
4:06 PM 30.2 °F 25.4 °F 26.6 °F 86% 29.82 in 8.0 mi ENE 4.6 mph - 0.00 in Snow Light Snow
4:15 PM 30.2 °F 22.6 °F 26.6 °F 86% 29.83 in 8.0 mi ENE 8.1 mph - 0.00 in   Overcast
4:54 PM 30.0 °F 24.1 °F 27.0 °F 88% 29.83 in 8.0 mi ENE 5.8 mph - 0.00 in   Mostly Cloudy
5:54 PM 30.0 °F 21.7 °F 27.0 °F 88% 29.83 in 10.0 mi ENE 9.2 mph - N/A   Scattered Clouds
6:11 PM 30.2 °F 22.6 °F 28.4 °F 93% 29.88 in 1.8 mi ENE 8.1 mph - 0.00 in Snow Light Snow
6:15 PM 30.2 °F 20.8 °F 28.4 °F 93% 29.88 in 1.2 mi ENE 11.5 mph - 0.01 in Snow Light Snow
6:29 PM 30.2 °F 22.6 °F 28.4 °F 93% 29.88 in 2.0 mi ENE 8.1 mph - 0.01 in Snow Light Snow
6:36 PM 30.2 °F 23.4 °F 26.6 °F 86% 29.88 in 8.0 mi NE 6.9 mph - 0.01 in Snow Light Snow
6:54 PM 28.9 °F 20.4 °F 27.0 °F 92% 29.87 in 10.0 mi ENE 9.2 mph - 0.01 in   Mostly Cloudy
7:21 PM 30.2 °F 19.3 °F 26.6 °F 86% 29.89 in 6.0 mi NE 15.0 mph - N/A   Mostly Cloudy
7:37 PM 30.2 °F 18.1 °F 28.4 °F 93% 29.90 in 2.5 mi NE 18.4 mph 24.2 mph 0.00 in Snow Light Snow
7:54 PM 30.0 °F 21.1 °F 28.0 °F 92% 29.86 in 4.0 mi NE 10.4 mph 17.3 mph 0.00 in Snow Light Snow
8:54 PM 30.9 °F 19.1 °F 28.0 °F 89% 29.85 in 6.0 mi ENE 18.4 mph 23.0 mph 0.00 in Snow Light Snow
9:01 PM 30.2 °F 18.1 °F 28.4 °F 93% 29.88 in 4.0 mi ENE 18.4 mph - 0.00 in Snow Light Snow
9:13 PM 30.2 °F 18.1 °F 28.4 °F 93% 29.88 in 1.8 mi ENE 18.4 mph 28.8 mph 0.00 in Snow Light Snow
9:21 PM 30.2 °F 18.1 °F 28.4 °F 93% 29.88 in 1.0 mi NE 18.4 mph 29.9 mph 0.00 in Snow Light Snow
9:24 PM 30.2 °F 17.8 °F 28.4 °F 93% 29.88 in 1.2 mi ENE 19.6 mph 26.5 mph 0.00 in Snow Light Snow
9:36 PM 30.2 °F 17.4 °F 28.4 °F 93% 29.87 in 1.5 mi NE 20.7 mph - 0.00 in Snow Light Snow
9:45 PM 30.2 °F 18.5 °F 28.4 °F 93% 29.87 in 1.2 mi ENE 17.3 mph 27.6 mph 0.00 in Snow Light Snow
9:52 PM 30.2 °F 17.8 °F 28.4 °F 93% 29.88 in 1.8 mi ENE 19.6 mph 25.3 mph 0.00 in Snow Light Snow
9:54 PM 30.2 °F 17.4 °F 28.4 °F 93% 29.88 in 1.8 mi ENE 20.7 mph 25.3 mph N/A Snow Light Snow
9:58 PM 30.2 °F 18.1 °F 28.4 °F 93% 29.88 in 1.2 mi ENE 18.4 mph 25.3 mph 0.00 in Snow Light Snow
10:16 PM 30.2 °F 18.1 °F 28.4 °F 93% 29.88 in 1.0 mi ENE 18.4 mph 25.3 mph 0.00 in Snow Light Snow
10:39 PM 30.2 °F 16.5 °F 28.4 °F 93% 29.90 in 1.5 mi ENE 24.2 mph 34.5 mph 0.00 in Snow Light Snow
10:54 PM 30.9 °F 19.8 °F 28.0 °F 89% 29.86 in 1.5 mi ENE 16.1 mph 24.2 mph 0.00 in Snow Light Snow
11:03 PM 30.2 °F 18.9 °F 28.4 °F 93% 29.90 in 1.2 mi ENE 16.1 mph - 0.00 in Snow Light Snow
11:15 PM 30.2 °F 18.5 °F 28.4 °F 93% 29.90 in 0.8 mi ENE 17.3 mph 23.0 mph 0.01 in Snow Light Snow
11:23 PM 30.2 °F 19.8 °F 28.4 °F 93% 29.89 in 1.2 mi NE 13.8 mph - 0.01 in Snow Light Snow
11:32 PM 30.2 °F 21.9 °F 28.4 °F 93% 29.88 in 1.5 mi NE 9.2 mph - 0.01 in Snow Light Snow
11:52 PM 30.2 °F 20.2 °F 28.4 °F 93% 29.88 in 2.5 mi NE 12.7 mph 21.9 mph 0.01 in Snow Light Snow
11:54 PM 30.9 °F 21.2 °F 28.0 °F 89% 29.84 in 2.5 mi NE 12.7 mph 20.7 mph 0.01 in Snow Light Snow